[[{"header":{"parameterUnit":"m.s-1","parameterCategory":1,"la1":30.2991,"la2":30.254,"lo1":-89.0895,"lo2":-89.0444,"dy":0.0017,"dx":0.0017,"nx":28,"ny":28,"refTime":"2023-09-27T09:00:00:Z","depth":0,"parameterNumber":2,"parameterNumberName":"U-component_of_WINDS"},"data":[0,0,0,0,0,0,0,0,0,0,0,0,0,0,0,0,0,0,0,0,0,0,0,0,0,0,0,0,0,0,0,0,0,0,0,0,0,0,0,0,0,0,0,0,0,0,0,0,0,0,0,0,0,0,0,0,0,0,-3.7091,-3.7091,0,-3.7101,-3.7101,-3.7101,-3.701,-3.7007,-3.7004,-3.7002,-3.7014,-3.7016,-3.7019,0,0,0,0,0,0,0,0,0,0,0,0,0,-3.6996,-3.6998,-3.7091,-3.7091,-3.7092,-3.7101,-3.7101,-3.7101,-3.701,-3.7007,-3.7004,-3.7001,-3.7013,-3.7016,-3.7019,0,0,0,0,0,0,0,0,0,0,0,0,0,-3.7025,-3.6999,-3.7091,-3.7047,-3.7043,-3.7101,-3.7101,-3.7101,-3.7011,-3.7007,-3.7003,-3.6999,-3.7012,-3.7016,-3.702,-3.7121,0,0,-3.7032,-3.7034,0,0,0,0,0,0,0,0,-3.7023,-3.7029,-3.7054,-3.705,-3.7046,-3.705,-3.7072,-3.7108,-3.7012,-3.7023,-3.7002,-3.6998,-3.7029,-3.7031,-3.7042,-3.7121,-3.7122,-3.7032,-3.7035,-3.7037,-3.7038,0,0,0,0,0,0,0,-3.7022,-3.7028,-3.7095,-3.7054,-3.7049,-3.7028,-3.7027,-3.7078,-3.7047,-3.7022,-3.7015,-3.7017,-3.7026,-3.7038,-3.7041,-3.7122,-3.7032,-3.7036,-3.7038,-3.704,-3.7286,-3.729,0,0,0,0,0,0,-3.7025,-3.7027,-3.7095,-3.7095,-3.7025,-3.7032,-3.7032,-3.7053,-3.7047,-3.7042,-3.7021,-3.7013,-3.7033,-3.7037,-3.7041,-3.716,-3.7037,-3.704,-3.7043,-3.7282,-3.7287,-3.7292,0,0,0,0,0,0,-3.7024,-3.7032,-3.7094,-3.7059,-3.7065,-3.7038,-3.7062,-3.7055,-3.7066,-3.7046,-3.704,-3.7038,-3.703,-3.7036,-3.7102,-3.7159,-3.7042,-3.7046,-3.7277,-3.7284,-3.7289,-3.7399,0,0,0,0,0,0,-3.7021,-3.7032,-3.707,-3.7061,-3.7068,-3.7154,-3.7065,-3.7058,-3.7073,-3.7064,-3.7061,-3.7056,-3.7028,-3.7096,-3.7106,-3.7163,-3.7049,-3.7272,-3.728,-3.7287,-3.739,-3.7408,-3.7423,0,0,0,0,0,-3.7018,-3.71,-3.7072,-3.7081,-3.7114,-3.7158,-3.7162,-3.7126,-3.7078,-3.7116,-3.7103,-3.7057,-3.7151,-3.7104,-3.7114,-3.7173,-3.7268,-3.7278,-3.7287,-3.7382,-3.7404,-3.7423,0,0,0,0,0,0,-3.7117,-3.7098,-3.7067,-3.7148,-3.7155,-3.7142,-3.7189,-3.7151,-3.7172,-3.7162,-3.7118,-3.7118,-3.7192,-3.7188,-3.7136,-3.7271,-3.7201,-3.7213,-3.7271,-3.7291,-3.7308,-3.7308,-3.7052,0,0,0,0,0,-3.7148,-3.7185,-3.7166,-3.724,-3.7245,-3.7217,-3.7235,-3.7207,-3.7213,-3.7215,-3.7207,-3.7215,-3.7247,-3.7268,-3.7296,-3.7388,-3.7387,-3.7434,-3.7451,-3.7464,-3.7476,-3.7526,-3.7547,-3.7322,-3.7322,-3.7322,0,0,-3.7213,-3.7207,-3.7233,-3.726,-3.7262,-3.7302,-3.722,-3.7265,-3.7295,-3.7222,-3.7285,-3.7279,-3.7285,-3.7365,-3.74,-3.7365,-3.7538,-3.7476,-3.7488,-3.7491,-3.7538,-3.7559,-3.7578,-3.7328,-3.7327,-3.7326,0,0,-3.7353,-3.7351,-3.7413,-3.7417,-3.7421,-3.7402,-3.7417,-3.741,-3.7403,-3.7465,-3.7412,-3.7446,-3.7501,-3.7508,-3.7519,-3.7662,-3.7621,-3.7672,-3.776,-3.781,-3.7828,-3.7843,-3.7896,-3.7915,-3.7683,-3.7683,-3.7684,0,-3.7433,-3.7491,-3.745,-3.75,-3.7513,-3.7449,-3.7512,-3.7518,-3.7532,-3.7543,-3.7503,-3.7571,-3.7571,-3.7653,-3.7688,-3.7698,-3.7715,-3.7673,-3.7828,-3.7843,-3.7857,-3.7907,-3.7927,-3.769,-3.7689,-3.7688,-3.7688,0,-3.7591,-3.7631,-3.7681,-3.7696,-3.7715,-3.7771,-3.774,-3.7764,-3.7735,-3.772,-3.7784,-3.7781,-3.7808,-3.7825,-3.7797,-3.7903,-3.7882,-3.7836,-3.7765,-3.7886,-3.7932,-3.7951,-3.7699,-3.7697,-3.7695,-3.7693,0,0,-3.7793,-3.7785,-3.7804,-3.7811,-3.7811,-3.7842,-3.7896,-3.7921,-3.7944,-3.7955,-3.8001,-3.8049,-3.8006,-3.8019,-3.7991,-3.8034,-3.815,-3.7983,-3.7982,-3.8016,-3.827,-3.8306,-3.8328,-3.8122,-3.8125,-3.8128,-3.827,0,-3.7931,-3.8021,-3.7987,-3.8081,-3.8119,-3.8058,-3.8105,-3.8111,-3.8099,-3.813,-3.8116,-3.8152,-3.8092,-3.8099,-3.8139,-3.8127,-3.8201,-3.8116,-3.8165,-3.8167,-3.8167,-3.8352,-3.839,-3.8524,-3.8287,-3.829,-3.8292,0,-3.8103,-3.8122,-3.822,-3.8215,-3.8229,-3.8272,-3.8294,-3.8323,-3.8329,-3.8317,-3.8332,-3.8294,-3.8348,-3.8276,-3.835,-3.8294,-3.8311,-3.8308,-3.8313,-3.8317,-3.8239,-3.8364,-3.8566,-3.8587,-3.832,-3.8318,-3.8316,0,-3.8244,-3.8293,-3.8359,-3.8366,-3.8361,-3.8393,-3.8392,-3.8394,-3.8412,-3.8431,-3.8443,-3.8468,-3.8482,-3.8503,-3.8474,-3.8424,-3.8553,-3.8478,-3.8546,-3.8547,-3.8577,-3.8576,-3.8787,-3.8585,-3.8585,-3.8585,-3.8584,0,-3.8402,-3.8465,-3.8422,-3.8463,-3.8532,-3.8491,-3.8561,-3.8553,-3.8556,-3.8595,-3.8543,-3.8581,-3.8539,-3.8573,-3.855,-3.8616,-3.8623,-3.8616,-3.8609,-3.8622,-3.8623,-3.8634,-3.8625,-3.859,-3.8589,-3.8588,-3.8587,0,-3.8572,-3.8545,-3.8613,-3.8602,-3.8601,-3.8653,-3.8644,-3.8682,-3.8666,-3.8716,-3.8725,-3.87,-3.8738,-3.871,-3.8747,-3.8732,-3.882,-3.8799,-3.8818,-3.8813,-3.8883,-3.8878,-3.9111,-3.914,-3.8918,-3.892,-3.8922,0,-3.8676,-3.8722,-3.8717,-3.8739,-3.8742,-3.8778,-3.8797,-3.8758,-3.878,-3.879,-3.8827,-3.886,-3.8885,-3.8948,-3.8934,-3.8963,-3.8944,-3.9023,-3.8948,-3.8959,-3.8948,-3.8946,-3.8952,-3.9039,-3.9042,-3.9044,-3.9046,0,-3.8863,-3.8848,-3.8876,-3.89,-3.8924,-3.8941,-3.8954,-3.8975,-3.8936,-3.8963,-3.9001,-3.902,-3.9058,-3.9093,-3.9116,-3.9116,-3.9076,-3.9069,-3.9087,-3.9101,-3.9111,-3.9109,-3.8862,-3.9065,-3.9063,-3.9061,-3.906,-3.906,-3.9004,-3.9044,-3.9047,-3.908,-3.9086,-3.91,-3.9135,-3.9123,-3.9154,-3.9182,-3.9157,-3.9203,-3.9209,-3.9236,-3.9241,-3.9277,-3.9245,-3.927,-3.9277,-3.9284,-3.9295,-3.9104,-3.9281,-3.9281,-3.928,-3.928,-3.9279,0,-3.9191,-3.919,-3.9221,-3.9241,-3.9268,-3.9226,-3.9239,-3.9264,-3.9305,-3.9313,-3.9338,-3.9383,-3.9416,-3.9404,-3.9434,-3.9465,-3.9448,-3.9475,-3.9473,-3.9474,-3.9321,-3.9304,-3.9488,-3.9488,-3.9488,-3.9488,-3.9488,-3.9488,-3.9292,-3.9357,-3.9342,-3.941,-3.9409,-3.9453,-3.9464,-3.9477,-3.9483,-3.9535,-3.9562,-3.9554,-3.9555,-3.9584,-3.9613,-3.9609,-3.9623,-3.9658,-3.9647,-3.9505,-3.9485,-3.9465,-3.9449,-3.9661,-3.9661,-3.9797,-3.9799,-3.98]},{"header":{"parameterUnit":"m.s-1","parameterCategory":1,"la1":30.2991,"la2":30.254,"lo1":-89.0895,"lo2":-89.0444,"dy":0.0017,"dx":0.0017,"nx":28,"ny":28,"refTime":"2023-09-27T09:00:00:Z","depth":0,"parameterNumber":3,"parameterNumberName":"V-component_of_WINDS"},"data":[0,0,0,0,0,0,0,0,0,0,0,0,0,0,0,0,0,0,0,0,0,0,0,0,0,0,0,0,0,0,0,0,0,0,0,0,0,0,0,0,0,0,0,0,0,0,0,0,0,0,0,0,0,0,0,0,0,0,-3.022,-3.022,0,-3.0246,-3.0246,-3.0246,-3.0209,-3.0208,-3.0207,-3.0206,-3.0232,-3.0234,-3.0236,0,0,0,0,0,0,0,0,0,0,0,0,0,-3.0138,-3.0139,-3.022,-3.022,-3.022,-3.0246,-3.0246,-3.0246,-3.021,-3.0208,-3.0206,-3.0205,-3.0232,-3.0234,-3.0236,0,0,0,0,0,0,0,0,0,0,0,0,0,-3.017,-3.014,-3.0219,-3.0205,-3.0204,-3.0246,-3.0246,-3.0247,-3.021,-3.0208,-3.0206,-3.0204,-3.0231,-3.0234,-3.0236,-3.0294,0,0,-3.0245,-3.0247,0,0,0,0,0,0,0,0,-3.0168,-3.0173,-3.0207,-3.0206,-3.0205,-3.0222,-3.0227,-3.0262,-3.021,-3.0208,-3.0206,-3.0203,-3.023,-3.0233,-3.0242,-3.0295,-3.0296,-3.0246,-3.0247,-3.0249,-3.0249,0,0,0,0,0,0,0,-3.0166,-3.0171,-3.023,-3.0207,-3.0206,-3.0197,-3.0199,-3.0234,-3.023,-3.0208,-3.0205,-3.0209,-3.023,-3.024,-3.0243,-3.0296,-3.0245,-3.0248,-3.025,-3.0251,-3.0399,-3.0401,0,0,0,0,0,0,-3.0165,-3.017,-3.0229,-3.0231,-3.0181,-3.02,-3.0203,-3.0219,-3.0229,-3.0229,-3.021,-3.0207,-3.0236,-3.0239,-3.0244,-3.0313,-3.0249,-3.0251,-3.0253,-3.0397,-3.04,-3.0402,0,0,0,0,0,0,-3.0164,-3.0171,-3.0228,-3.0199,-3.0206,-3.0204,-3.0222,-3.022,-3.023,-3.0231,-3.023,-3.0222,-3.0234,-3.024,-3.0282,-3.0314,-3.0253,-3.0255,-3.0395,-3.0398,-3.0401,-3.0452,0,0,0,0,0,0,-3.0161,-3.017,-3.0192,-3.02,-3.0208,-3.0266,-3.0224,-3.0222,-3.0236,-3.0231,-3.0242,-3.0241,-3.0233,-3.0278,-3.0285,-3.0317,-3.0257,-3.0392,-3.0396,-3.04,-3.0448,-3.0457,-3.0464,0,0,0,0,0,-3.0159,-3.0205,-3.0193,-3.0201,-3.0235,-3.0268,-3.0272,-3.0262,-3.0238,-3.026,-3.0261,-3.0241,-3.0309,-3.0283,-3.029,-3.0323,-3.039,-3.0395,-3.04,-3.0444,-3.0455,-3.0464,0,0,0,0,0,0,-3.02,-3.0206,-3.0193,-3.0243,-3.0256,-3.0262,-3.0289,-3.0274,-3.0293,-3.0288,-3.0274,-3.0277,-3.0323,-3.0327,-3.0298,-3.038,-3.0345,-3.0352,-3.0376,-3.0387,-3.0395,-3.0394,-3.026,0,0,0,0,0,-3.0215,-3.0242,-3.0245,-3.0289,-3.0296,-3.0292,-3.0305,-3.0297,-3.0309,-3.0314,-3.0317,-3.033,-3.0354,-3.037,-3.0392,-3.0447,-3.045,-3.0474,-3.0482,-3.0489,-3.0496,-3.0527,-3.0538,-3.0418,-3.0418,-3.0418,0,0,-3.0246,-3.0253,-3.027,-3.0298,-3.0306,-3.0334,-3.0296,-3.0327,-3.0348,-3.0318,-3.0359,-3.0362,-3.0375,-3.0425,-3.0447,-3.043,-3.0529,-3.0495,-3.0501,-3.0504,-3.0533,-3.0545,-3.0555,-3.0422,-3.0421,-3.0421,0,0,-3.0319,-3.0325,-3.0364,-3.0373,-3.0387,-3.0384,-3.0393,-3.0402,-3.0403,-3.0444,-3.0422,-3.0447,-3.0488,-3.0499,-3.051,-3.0587,-3.0571,-3.0595,-3.064,-3.0671,-3.068,-3.0688,-3.0718,-3.0729,-3.0601,-3.0601,-3.0601,0,-3.0356,-3.0398,-3.0385,-3.0419,-3.0432,-3.0406,-3.0446,-3.0455,-3.0475,-3.0485,-3.0465,-3.0518,-3.0525,-3.0578,-3.0597,-3.0605,-3.0617,-3.0594,-3.068,-3.0688,-3.0696,-3.0724,-3.0735,-3.0604,-3.0604,-3.0603,-3.0603,0,-3.0444,-3.0474,-3.0503,-3.0524,-3.054,-3.0576,-3.057,-3.0588,-3.0578,-3.0577,-3.062,-3.0627,-3.0651,-3.0662,-3.0652,-3.0714,-3.0703,-3.0682,-3.0647,-3.071,-3.0737,-3.0747,-3.0608,-3.0607,-3.0606,-3.0606,0,0,-3.0544,-3.0558,-3.057,-3.058,-3.0593,-3.0616,-3.0651,-3.0675,-3.0691,-3.0705,-3.0736,-3.0772,-3.0752,-3.0765,-3.0755,-3.0782,-3.0846,-3.0757,-3.0758,-3.0776,-3.0917,-3.0935,-3.0948,-3.0834,-3.0836,-3.0837,-3.0917,0,-3.0618,-3.068,-3.067,-3.073,-3.0758,-3.0734,-3.0765,-3.0777,-3.0777,-3.0801,-3.08,-3.0827,-3.0798,-3.0806,-3.0831,-3.0833,-3.0874,-3.0826,-3.0863,-3.0865,-3.0863,-3.0961,-3.098,-3.1055,-3.0927,-3.0929,-3.093,0,-3.0713,-3.0732,-3.0795,-3.0806,-3.0817,-3.0845,-3.0867,-3.089,-3.0903,-3.0901,-3.0915,-3.0902,-3.0937,-3.0901,-3.0951,-3.0919,-3.0933,-3.0936,-3.0938,-3.0943,-3.0903,-3.0971,-3.1078,-3.1091,-3.0945,-3.0944,-3.0943,0,-3.0783,-3.0824,-3.0868,-3.0876,-3.0889,-3.091,-3.0916,-3.0927,-3.0942,-3.0961,-3.0971,-3.0994,-3.1007,-3.1025,-3.1018,-3.0991,-3.107,-3.1032,-3.1071,-3.1072,-3.1091,-3.109,-3.1204,-3.1096,-3.1096,-3.1096,-3.1095,0,-3.0868,-3.0908,-3.09,-3.0927,-3.0971,-3.0959,-3.1004,-3.1007,-3.1017,-3.1044,-3.1024,-3.105,-3.1038,-3.1064,-3.1058,-3.1102,-3.1107,-3.1108,-3.1107,-3.1111,-3.1112,-3.1122,-3.1118,-3.1099,-3.1098,-3.1097,-3.1097,0,-3.0954,-3.095,-3.0996,-3.1005,-3.1008,-3.104,-3.1047,-3.1073,-3.1071,-3.1107,-3.1114,-3.1112,-3.1142,-3.1136,-3.1168,-3.1164,-3.122,-3.121,-3.1216,-3.1215,-3.1255,-3.1252,-3.1382,-3.1399,-3.1277,-3.1278,-3.1279,0,-3.101,-3.1041,-3.1053,-3.107,-3.1078,-3.1106,-3.1122,-3.1111,-3.1129,-3.1146,-3.117,-3.1198,-3.122,-3.1268,-3.1269,-3.1294,-3.1287,-3.133,-3.129,-3.1295,-3.129,-3.129,-3.1294,-3.1339,-3.134,-3.1342,-3.1342,0,-3.1111,-3.1107,-3.1131,-3.1155,-3.1175,-3.1193,-3.1209,-3.1224,-3.1215,-3.1236,-3.1266,-3.1283,-3.1316,-3.1345,-3.1368,-3.1374,-3.1358,-3.1355,-3.1366,-3.1372,-3.1375,-3.1376,-3.124,-3.1352,-3.1351,-3.1351,-3.135,-3.135,-3.1185,-3.1212,-3.1225,-3.1253,-3.1264,-3.128,-3.1305,-3.1307,-3.1332,-3.1359,-3.135,-3.1385,-3.1398,-3.1428,-3.1437,-3.1464,-3.1448,-3.1463,-3.1467,-3.1472,-3.1478,-3.1369,-3.1468,-3.1468,-3.1467,-3.1467,-3.1467,0,-3.1287,-3.1294,-3.132,-3.1344,-3.1366,-3.1348,-3.1365,-3.1385,-3.1416,-3.1429,-3.1451,-3.1487,-3.1514,-3.1518,-3.1544,-3.1565,-3.1559,-3.1573,-3.1573,-3.1575,-3.149,-3.1479,-3.1578,-3.1578,-3.1578,-3.1578,-3.1578,-3.1578,-3.1343,-3.1388,-3.1386,-3.1437,-3.1443,-3.1478,-3.1489,-3.1504,-3.1515,-3.1556,-3.1579,-3.1581,-3.1591,-3.1618,-3.1643,-3.1643,-3.1655,-3.1673,-3.167,-3.1591,-3.158,-3.157,-3.156,-3.1675,-3.1675,-3.1753,-3.1754,-3.1755]}]]